Location: Dziadowski
(50.3833°N, 20.0333°E)
Time: 01:08:14
(UTC+00:00)

Cosmos 1295 Rocket - Pass Details

Date: 18 January 2026
Orbit: 942 x 994 km, 82.9° (Epoch: 6 February)

Event Time Altitude Azimuth Distance (km) Brightness Sun altitude
Rises 03:57:31 0° 189° (S) 3,695 7.5 -24.0°
Reaches altitude 10° 04:00:02 10° 190° (S) 2,747 6.8 -23.6°
Maximum altitude 04:06:22 84° 279° (W) 998 4.4 -22.6°
Drops below altitude 10° 04:12:41 10° 9° (N) 2,739 6.9 -21.6°
Sets 04:15:12 0° 10° (N) 3,683 7.6 -21.2°
